Helicity
35 30 32 14 -31 -33 43 81 68 106 32 43 40 79 101 126 164 253 324 214 186 181 132 160 189 197 200 220 197 171 246 225 191 174 164 179 173 157 129 114 102 89 62 56 50
22 27 45 42 33 -34 -8 29 85 160 26 37 38 70 110 116 232 328 298 254 200 177 143 141 185 202 228 208 208 241 263 241 212 185 175 184 168 150 134 127 133 111 86 72 74
-1 32 39 49 39 13 -28 16 54 167 142 30 33 56 78 194 206 202 174 233 224 165 145 156 170 204 230 217 240 238 224 173 215 204 189 185 183 134 118 128 91 81 81 93 103
1 -5 26 44 53 28 11 6 83 44 60 85 46 50 124 195 244 192 237 219 191 147 160 165 190 215 202 201 196 177 205 176 166 176 169 166 144 141 132 109 98 114 97 96 105
18 2 20 35 50 6 -1 4 57 48 118 103 121 137 150 249 251 253 262 187 141 141 164 154 179 171 181 164 188 179 163 193 177 175 177 139 141 126 122 102 97 90 97 94 88
16 24 19 27 15 -16 3 -5 42 131 193 172 127 146 186 263 270 260 225 149 139 151 187 171 116 110 172 187 164 153 166 180 207 194 166 145 127 132 110 127 117 120 116 102 94
72 29 37 12 22 41 20 20 28 24 190 183 200 168 313 244 259 262 181 178 156 117 179 192 153 147 169 184 147 148 182 185 240 200 151 128 107 100 119 116 112 112 111 105 76
41 92 31 80 57 48 30 45 75 52 103 239 226 197 273 240 238 240 231 203 200 188 131 140 163 158 214 168 256 193 184 156 173 206 146 132 113 103 117 143 123 94 72 59 57
29 35 78 68 64 27 26 25 55 60 113 245 222 185 206 225 219 283 210 193 198 195 199 158 165 211 220 208 241 236 133 151 149 147 147 147 117 96 90 117 103 86 65 63 70
7 37 7 12 16 19 42 12 71 69 128 218 212 136 210 247 220 208 188 158 171 184 212 206 193 203 234 199 143 141 157 167 137 153 150 128 85 72 75 80 71 67 73 94 102
18 5 36 44 50 19 47 29 183 296 259 97 131 171 211 201 133 190 164 164 163 173 208 224 252 259 222 185 143 155 172 144 128 109 111 96 84 81 86 62 66 84 91 99 105
15 69 65 55 39 31 70 73 160 179 209 208 242 220 179 137 187 283 139 144 186 189 179 205 246 203 177 168 153 166 147 157 113 97 83 100 88 88 82 92 111 104 109 120 139
62 75 71 68 100 175 166 120 155 167 206 233 245 262 270 175 261 255 133 151 182 234 197 169 165 149 137 191 176 200 134 123 113 111 75 74 56 93 95 102 116 110 111 124 125
68 81 64 53 139 173 110 114 94 72 42 177 162 130 184 158 169 170 137 123 180 195 177 189 165 124 143 161 160 162 120 114 119 110 86 79 3 57 101 117 119 111 106 128 119
56 52 40 2 61 71 79 51 29 26 30 70 110 140 149 58 150 195 103 114 138 169 136 180 179 185 191 165 113 100 91 101 85 92 82 107 76 -31 55 101 88 87 78 81 61
69 65 63 26 18 39 35 13 9 6 3 81 99 73 43 124 117 156 116 122 82 146 203 110 120 124 110 127 127 54 102 104 86 85 72 94 132 40 49 62 89 74 59 53 51
63 49 45 25 28 21 -1 -10 20 -1 72 38 65 83 68 95 88 86 101 101 50 52 81 94 98 89 75 75 95 93 89 95 98 118 75 74 90 40 47 51 55 54 48 42 45
40 58 75 60 33 6 -8 13 12 -23 -3 29 53 60 45 71 60 66 42 55 77 61 64 48 70 66 68 53 40 61 56 81 87 111 94 58 59 28 40 45 46 40 35 49 51
73 88 114 87 49 37 13 2 42 33 11 -23 28 36 44 44 31 43 40 22 30 33 29 32 49 48 54 48 46 37 73 48 88 52 66 64 50 38 45 5 22 11 24 9 8
78 87 100 65 54 22 21 15 7 19 -25 -4 10 20 10 45 29 26 24 24 20 34 30 2 32 37 41 57 62 63 54 79 97 70 59 60 56 56 73 43 9 -20 -43 -8 15
55 63 82 64 41 34 83 31 -14 -7 16 7 13 -13 -20 -11 17 24 13 24 19 31 40 34 42 38 50 38 60 85 89 101 105 103 68 52 50 15 5 1 -2 -35 -17 18 24
45 52 47 42 32 47 44 25 25 9 -1 -2 -2 -6 -9 -9 -15 14 17 11 14 23 42 31 54 60 33 51 46 60 59 100 113 70 81 78 80 23 10 -29 -25 10 17 42 28
27 44 33 28 62 54 33 29 21 17 11 12 16 13 13 27 14 16 11 3 5 -4 -13 -2 -4 20 34 31 61 62 75 86 91 71 68 38 -14 -24 -3 3 -24 5 26 38 9
19 34 21 15 49 54 49 38 36 19 21 8 6 -1 6 17 17 25 17 1 1 -2 -15 -29 -2 20 28 -6 -26 9 3 59 78 67 76 247 120 21 8 7 12 26 27 18 10
13 48 40 49 37 40 31 47 53 47 8 8 6 10 10 16 7 14 3 -0 -12 -0 -10 -22 11 18 16 25 50 77 86 129 247 264 186 31 121 178 45 -7 11 15 11 -2 34
25 37 29 47 42 43 26 53 75 40 39 40 37 16 29 38 29 16 9 15 16 -8 -0 -9 30 -7 -10 10 68 123 147 197 248 246 264 237 132 130 190 80 47 20 5 38 39
13 10 23 29 28 38 51 52 41 38 27 26 38 36 42 34 24 4 4 -15 -9 11 61 48 38 -0 58 -10 -27 68 154 294 250 260 329 229 316 68 46 44 13 -1 53 97 45
Wind_Speed
46 46 29 34 29 8 10 5 7 11 20 23 28 32 33 32 30 31 30 36 34 36 34 31 27 28 26 29 28 29 37 39 35 31 28 26 25 26 27 24 28 30 26 23 23
38 34 34 35 35 27 9 8 6 12 15 16 28 30 32 28 26 29 30 30 31 33 35 31 31 32 33 35 34 34 37 37 32 28 26 25 25 26 27 26 28 26 25 25 28
44 32 37 34 36 30 12 14 20 5 11 13 27 29 32 32 37 40 34 34 35 32 32 32 29 32 35 35 38 36 35 25 28 27 27 26 26 29 22 29 28 27 26 30 34
48 39 34 37 34 30 24 10 6 19 20 29 26 29 32 36 53 38 36 35 35 32 32 31 33 34 34 32 35 29 29 30 28 30 29 28 29 29 32 32 28 28 32 35 40
48 37 33 34 29 25 30 7 4 7 17 29 21 29 30 31 33 34 35 32 27 30 33 33 34 32 32 30 29 24 29 26 26 26 28 31 32 34 34 33 35 37 38 39 41
46 39 33 32 33 31 30 22 10 10 11 6 15 21 25 31 29 30 29 27 26 29 32 34 35 25 27 31 32 27 21 26 29 31 32 36 37 38 35 37 35 36 37 40 44
54 39 40 34 47 51 44 24 11 13 16 5 4 8 11 21 24 22 18 24 24 24 26 27 29 33 28 25 24 23 30 32 35 40 39 42 45 41 38 38 39 41 42 51 55
56 52 48 54 53 53 51 33 11 9 7 5 6 4 20 20 20 13 18 13 11 9 12 15 16 19 30 22 30 35 37 42 44 43 42 41 49 36 35 42 49 51 55 58 62
53 52 41 44 51 53 54 36 13 12 10 10 6 7 19 24 18 22 20 19 16 14 13 17 20 26 29 32 37 43 46 47 46 41 46 43 48 40 38 53 60 64 65 62 58
31 55 45 41 36 33 40 30 12 7 14 13 11 5 19 23 25 25 22 20 19 22 23 26 28 33 36 43 52 49 46 46 49 48 49 54 62 59 57 61 67 65 60 55 55
54 69 40 28 8 10 17 8 19 18 20 9 2 5 18 24 17 18 23 23 24 25 35 29 31 38 38 38 37 36 41 46 47 46 54 55 65 70 68 68 64 57 53 54 57
52 49 33 23 16 22 17 18 25 29 16 11 4 1 9 21 14 18 20 25 30 28 30 30 34 35 31 31 32 37 42 49 50 49 57 63 78 79 71 62 57 55 56 58 60
47 42 35 43 45 40 23 15 17 15 5 8 7 10 13 9 13 20 21 19 19 24 28 32 32 32 32 34 38 41 46 50 55 59 55 71 77 65 56 54 52 51 52 55 61
27 30 36 38 41 37 27 32 24 29 13 9 14 15 21 23 14 19 23 22 24 21 22 26 32 29 30 36 40 47 42 46 55 62 71 61 87 73 66 66 59 55 53 55 59
21 17 25 31 40 35 29 26 28 31 16 23 17 26 16 16 24 19 20 17 18 24 31 33 30 32 35 41 43 45 43 50 56 62 70 69 78 72 63 66 59 49 43 50 57
11 13 21 29 34 30 25 29 30 22 20 20 22 17 12 14 21 28 17 16 20 17 17 24 30 34 35 35 36 33 45 50 52 56 70 61 59 64 51 47 45 38 40 49 59
11 17 26 27 24 22 28 26 24 23 27 15 17 19 13 16 17 16 20 18 22 26 29 28 31 32 31 34 36 37 42 54 56 54 59 45 53 53 45 46 40 43 47 52 57
16 21 25 27 20 26 30 21 6 17 21 17 17 16 15 20 19 20 20 23 24 25 23 29 33 32 32 32 33 34 35 42 53 52 54 47 54 45 38 37 41 43 47 51 52
22 29 32 20 24 31 38 41 44 47 49 27 15 17 20 23 23 24 24 23 25 25 27 28 31 27 27 27 29 34 37 32 43 49 57 51 53 59 46 45 40 41 43 43 46
31 34 33 18 32 35 44 49 45 48 45 40 38 36 38 23 23 24 25 27 25 26 25 22 29 28 26 27 30 33 21 41 43 52 56 54 56 50 37 32 30 34 37 42 49
31 35 32 29 36 43 52 51 52 46 40 38 41 26 27 36 36 31 29 28 26 26 26 24 29 30 29 29 26 28 33 33 36 40 54 61 52 31 29 24 24 29 44 45 50
31 37 27 33 39 43 50 48 48 45 39 40 41 41 41 39 33 23 24 26 21 22 24 29 29 34 33 33 28 29 30 26 39 42 38 45 54 34 27 48 49 32 44 46 48
30 30 28 33 44 46 46 47 42 42 40 40 40 39 39 41 38 38 38 36 39 36 35 27 33 21 34 28 22 9 11 12 18 35 37 22 39 39 43 44 35 40 49 52 57
30 32 29 38 39 46 45 42 42 38 39 38 37 37 39 38 35 37 36 35 39 36 34 33 34 35 34 32 33 35 38 41 42 41 40 45 46 51 50 50 53 54 52 52 47
35 33 31 33 35 40 36 39 40 39 35 36 35 35 35 34 33 32 34 33 34 34 34 32 30 32 35 37 38 43 44 42 46 46 42 42 43 50 52 54 54 49 35 40 44
39 32 33 33 32 34 32 33 36 35 37 34 34 33 34 32 33 30 32 32 31 34 34 31 27 28 32 32 35 41 45 46 49 49 56 54 57 64 59 50 39 26 20 38 45
39 37 35 29 28 29 28 31 31 32 31 32 32 33 30 29 30 28 30 30 30 30 32 29 26 22 22 28 35 31 31 37 35 34 42 37 44 39 58 60 59 51 38 52 52
Wind_Direction
346 355 345 355 2 307 239 265 214 258 207 202 206 210 212 213 216 223 227 236 242 244 237 233 236 237 243 247 263 270 263 256 261 260 269 280 283 297 303 305 311 312 318 321 324
338 340 347 352 358 11 342 252 294 254 190 192 201 204 207 203 204 218 250 251 248 244 230 225 226 231 240 246 258 263 262 263 270 273 269 279 285 292 298 303 307 315 317 316 316
347 333 349 348 357 2 331 269 228 219 216 189 198 197 199 222 216 234 254 255 248 243 233 230 227 230 239 245 255 261 262 263 269 275 276 278 283 288 295 297 303 306 312 311 310
0 347 335 350 350 357 6 358 241 235 247 220 194 192 221 226 219 241 253 249 245 237 230 226 228 233 238 242 249 252 258 259 262 268 270 273 279 285 288 295 304 307 307 308 307
359 347 341 344 334 336 21 329 12 76 72 101 188 216 220 216 230 250 252 246 240 232 229 227 229 234 237 241 250 252 252 263 269 276 278 277 280 285 290 298 299 301 306 309 310
353 353 348 349 345 14 31 34 96 104 109 98 214 215 215 205 255 256 249 241 235 233 232 234 236 240 241 246 253 253 257 264 276 279 283 280 283 289 295 302 305 308 310 311 310
8 9 10 5 40 48 43 54 94 101 164 178 194 169 154 222 257 259 254 240 238 236 231 240 238 248 242 246 251 257 259 269 280 280 283 287 282 287 296 302 304 305 306 303 304
24 27 43 44 45 45 47 51 110 135 174 272 257 198 213 258 257 262 253 239 246 244 234 247 253 252 253 248 261 261 265 264 276 285 287 288 282 292 298 299 297 299 300 302 304
28 32 28 34 39 47 53 52 64 168 211 219 243 256 230 256 242 257 250 233 237 247 259 263 262 254 254 248 256 264 262 266 273 288 285 287 286 292 296 297 295 298 299 303 308
81 33 25 23 27 30 41 51 91 209 195 202 249 311 243 233 243 252 251 244 238 242 249 259 261 250 254 254 254 259 265 271 272 283 285 283 280 285 291 295 296 300 304 307 309
34 58 15 1 295 213 189 208 190 141 59 38 253 39 225 236 254 258 256 244 243 245 241 261 246 248 258 265 267 268 269 272 278 286 288 285 284 284 290 293 297 302 305 307 308
95 97 104 110 131 163 181 178 174 178 107 117 107 67 241 242 241 266 270 245 245 241 249 250 250 261 269 272 273 272 272 276 282 288 290 289 284 286 292 296 298 299 302 305 308
87 88 95 111 123 130 123 142 182 199 43 355 228 313 263 272 254 258 261 249 244 247 254 254 262 268 268 273 273 280 278 281 283 290 294 293 289 292 298 300 301 302 304 307 310
90 94 95 116 127 143 156 152 182 170 20 276 255 279 259 240 266 271 266 262 258 246 260 269 270 272 277 279 283 278 290 291 290 291 286 299 287 292 297 297 299 299 302 308 314
98 111 112 117 131 144 164 183 185 179 336 277 244 204 221 225 232 276 275 280 257 261 265 265 272 276 279 282 286 284 293 293 293 292 292 293 291 297 301 297 298 300 305 313 316
114 122 132 124 130 142 169 174 172 318 348 257 235 293 320 325 226 219 264 265 261 293 304 281 284 287 287 295 298 297 295 297 298 297 290 297 296 299 305 309 310 312 312 316 319
128 122 117 122 143 163 143 182 271 334 218 286 281 253 291 300 316 300 257 282 282 267 271 280 284 288 293 294 300 301 300 291 291 292 291 307 301 300 308 310 313 317 318 319 321
116 123 116 118 152 152 147 263 323 335 305 294 287 309 292 265 268 287 294 279 295 290 286 280 281 289 297 300 298 303 302 294 292 295 299 309 299 309 323 324 320 319 320 321 324
111 108 106 111 137 131 112 118 125 137 140 62 315 304 291 276 265 264 278 299 298 305 289 283 287 317 319 322 318 307 302 312 303 304 301 303 305 308 314 309 316 323 326 326 328
95 100 101 120 120 117 110 112 125 130 94 132 162 180 177 234 282 286 282 281 293 298 309 325 300 314 324 324 325 315 331 304 306 302 302 304 306 306 317 327 334 337 337 324 288
100 101 100 114 110 105 106 113 120 135 141 144 143 92 60 110 190 227 254 272 294 305 308 316 314 315 315 313 312 317 311 317 317 311 305 305 310 317 320 326 339 334 281 268 272
103 98 106 108 104 107 109 118 124 125 134 132 135 140 149 155 158 0 331 320 333 334 334 314 325 308 314 317 323 318 317 318 310 311 315 315 311 322 312 252 247 198 255 262 263
103 106 112 113 100 106 113 117 124 126 129 132 132 137 140 140 141 148 153 161 146 139 158 120 220 305 294 297 300 313 152 145 303 279 201 231 218 237 241 258 216 231 263 271 291
105 103 111 102 111 107 113 118 119 129 129 131 136 140 139 139 148 145 151 159 158 165 164 157 182 188 188 192 190 190 190 186 186 203 208 204 222 224 229 236 247 258 261 272 266
77 95 107 110 108 108 119 121 120 120 132 137 138 146 143 141 150 156 160 162 166 172 168 181 193 195 210 216 215 219 212 199 197 199 202 222 211 226 238 245 251 247 230 238 245
49 77 92 100 119 113 123 129 123 128 124 130 132 136 144 147 148 148 155 167 171 181 174 187 196 206 229 221 217 224 219 211 210 210 220 226 239 248 243 236 221 207 202 211 239
34 35 46 86 109 109 125 125 135 128 140 137 129 124 141 167 169 167 159 167 170 162 160 168 176 197 195 232 251 228 203 196 197 197 205 208 212 215 246 251 257 249 224 235 241